DELTA 1 DEB, 2518

Orbit data source: Space-Track

DELTA 1 DEB, 2518 is space debris in SSO originally from a launch on Sun, 02 Oct 1966 UTC launched from the Air Force Western Test Range (AFWTR). Debris objects in space refer to the collection of defunct objects orbiting the Earth. Examples of debris include non-operational satellites, rocket bodies, and fragments generated from explosions, collisions, or faulty payload assembly.

Loading next visibility...
Identifier
2518, 1966-087C
Orbit
SSO
Country
Flag of USUS
Related business
Manufacturer
Unknown
Mission
Spacecraft
Bus & Motor
Unknown
Mass
1 kg wet, 1 kg dry
Launch date (UTC)
1966-10-02 (60 years ago)
Launch vehicle
Unknown
Launch site
Air Force Western Test Range (AFWTR)
Object type
Payload
Rocket body
Debris
Shape & HBR
DISK + CABLE, 1.1 m
Radar Cross Section
Medium (>0.1 m² and <1 m²)

Expand to show TLE details & history
Last TLE update: 1 day ago

TLE from 1 day ago
0 DELTA 1 DEB
1 02518U 66087C   26263.18467664 -.00000044  00000-0 -38093-4 0  9991
2 02518 100.8488 342.5229 0080835  15.7449  12.1237 12.42705279719224
Epoch: 2026-09-20T04:25Z
TLE epoch observation values (Epoch: 2026-09-20T04:25:56.061Z)
Latitude
27.5597°
Longitude
-88.75491°
Altitude
1,436.055 km
Speed
7.174 km/s
True Right ascension
22h 27m 14s
True Declination
27° 25' 52"
Sunlit
Object was in full shadow at epoch
Visualization orbit readout
Latitude
Unknown
Longitude
Unknown
Altitude
Unknown
Speed
Unknown
Apparent Right ascension
Unknown
Apparent Declination
Unknown
Sunlit
N/A
Visualization observer readout
Local Sidereal Time
01:04:29
Azimuth
Unknown
Elevation
Unknown
Doppler factor
Unknown
Orbital elements
Apogee altitude
1,556.285 km
Perigee altitude
1,429.038 km
Semi-major axis
7,870.799 km
Eccentricity
0.00808
Inclination
100.8488°
RAAN
342.5229°
Arg. of periapsis
15.7449°
True anomaly
12.32018°
Mean anomaly
12.1237°
Eccentric anomaly
12.22175°
Mean motion
3.10824 °/min
Orbital period
115.82 mins
BSTAR
-0.000038093
Loading maneuver chart data...
Computing Atmospheric mass density...
Loading historical data...
Loading historical data...
Loading historical data...
Loading historical data...
Loading historical data...
Loading historical data...
Loading historical data...
Other satellites on launch #87 in the year 1966 (1966-10-02 UTC)

Documentation

Showing up to 5 results
|